Starlink 34232

operational
NORAD ID: 65019 Int'l Des: 2025-161 Owner: SPXS Country: US Constellation: starlink
LEOCIRCULAR

About Starlink 34232

Description loading...

Live Position

Loading 3D Globe...

Upcoming Passes

Altitude History

Altitude vs Time

uPlot chart will show altitude changes over time

Two-Line Element Set

1 65019U 25161E 26094.59448919 .00043297 00000-0 14639-2 0 9996
2 65019 53.1595 174.0454 0001333 108.3835 251.7311 15.30234313 39405
Epoch: Apr 4, 2026 • Age: 20 hours

Current Status

Altitude 476.2 km
Velocity 7.63 km/s
Sub-Earth Point -4.08°S, 11.34°E
Launch Date Jul 30, 2025
Age 0.6 years
Type internet

Technical Details

Classification Payload
Mass 575.00 kg
Dry Mass 530.00 kg
Total Mass 575.00 kg
Length 0.30 m
Diameter 4.10 m
Span 29.00 m
Shape Box + pan
Manufacturer SPXS
Bus Type Starlink V2MO
Phase Status In Orbit
Owner/State SPXS/US

Large Constellations

Loading constellations...